N1VL Weather Reports


Display with metric or nautical units.
time (UTC)temp
F
wind
direction
speed
MPH
gust
MPH
rain 1hr
in
rain 24hr
in
rain mn
in
humidity
%
barometer
mb
20260903180002 78 108 8.0 16.0 0.00 0.00 0.00 23 1017.1
20260903175403 78 99 8.0 15.0 0.00 0.00 0.00 23 1017.3
20260903174523 78 92 9.0 15.0 0.00 0.00 0.00 22 1017.2
20260903173602 77 102 7.0 14.0 0.00 0.00 0.00 22 1017.3
20260903172703 76 92 9.0 21.0 0.00 0.00 0.00 21 1017.3
20260903171803 76 82 11.0 21.0 0.00 0.00 0.00 22 1017.3
20260903170902 76 87 9.0 16.0 0.00 0.00 0.00 21 1017.4
20260903170024 76 82 10.0 16.0 0.00 0.00 0.00 22 1017.5
20260903165402 75 85 9.0 14.0 0.00 0.00 0.00 22 1017.5
20260903164503 75 91 8.0 16.0 0.00 0.00 0.00 22 1017.4
20260903163603 74 89 9.0 16.0 0.00 0.00 0.00 22 1017.4
20260903162724 74 93 9.0 16.0 0.00 0.00 0.00 23 1017.5
20260903161803 74 92 9.0 16.0 0.00 0.00 0.00 23 1017.4
20260903160902 73 95 7.0 15.0 0.00 0.00 0.00 23 1017.4
20260903160002 73 100 8.0 16.0 0.00 0.00 0.00 22 1017.4
20260903155402 73 92 9.0 16.0 0.00 0.00 0.00 24 1017.5
20260903154502 72 91 8.0 16.0 0.00 0.00 0.00 26 1017.5
20260903153603 71 98 7.0 16.0 0.00 0.00 0.00 26 1017.5
20260903152702 71 100 7.0 12.0 0.00 0.00 0.00 27 1017.6
20260903151803 70 106 6.0 12.0 0.00 0.00 0.00 30 1017.6
20260903150903 68 115 4.0 8.0 0.00 0.00 0.00 33 1017.7
20260903150003 66 125 4.0 6.0 0.00 0.00 0.00 39 1017.7
20260903145403 65 124 4.0 6.0 0.00 0.00 0.00 36 1017.8
20260903144502 63 111 3.0 6.0 0.00 0.00 0.00 36 1017.7
20260903143602 62 99 3.0 6.0 0.00 0.00 0.00 37 1017.6
20260903142703 61 100 3.0 5.0 0.00 0.00 0.00 38 1017.6
20260903141802 59 100 3.0 5.0 0.00 0.00 0.00 41 1017.6
20260903140903 58 100 3.0 5.0 0.00 0.00 0.00 45 1017.6
20260903140003 57 100 3.0 5.0 0.00 0.00 0.00 43 1017.6
20260903135403 56 101 3.0 5.0 0.00 0.00 0.00 46 1017.6
20260903134503 56 92 4.0 5.0 0.00 0.00 0.00 46 1017.5
20260903133603 55 86 4.0 5.0 0.00 0.00 0.00 47 1017.5
20260903132702 54 86 2.0 5.0 0.00 0.00 0.00 45 1017.4
20260903131823 54 86 3.0 5.0 0.00 0.00 0.00 49 1017.2
20260903130903 55 86 2.0 4.0 0.00 0.00 0.00 47 1017.1
20260903130003 54 86 2.0 5.0 0.00 0.00 0.00 47 1016.9
20260903125402 54 86 2.0 5.0 0.00 0.00 0.00 47 1016.9
20260903124503 54 86 2.0 6.0 0.00 0.00 0.00 49 1016.8
20260903123603 54 88 2.0 6.0 0.00 0.00 0.00 51 1016.8
20260903122703 54 94 2.0 5.0 0.00 0.00 0.00 52 1016.8
20260903121802 55 93 4.0 5.0 0.00 0.00 0.00 50 1016.8
20260903120924 55 93 3.0 5.0 0.00 0.00 0.00 48 1016.8
20260903120003 56 93 1.0 4.0 0.00 0.00 0.00 46 1016.8
20260903115403 57 93 0.0 1.0 0.00 0.00 0.00 44 1016.7
20260903114503 57 93 1.0 4.0 0.00 0.00 0.00 42 1016.7
20260903113624 57 93 3.0 5.0 0.00 0.00 0.00 42 1016.7
20260903112703 58 105 4.0 6.0 0.00 0.00 0.00 43 1016.7
20260903111803 57 194 2.0 5.0 0.00 0.00 0.00 43 1016.6
20260903110903 57 194 0.0 1.0 0.00 0.00 0.00 42 1016.5
20260903110003 58 0 0.0 0.0 0.00 0.00 0.00 39 1016.6
20260903105424 58 0 0.0 0.0 0.00 0.00 0.00 38 1016.4
20260903104503 58 194 0.0 2.0 0.00 0.00 0.00 39 1016.4
20260903103603 58 194 2.0 5.0 0.00 0.00 0.00 38 1016.5
20260903101824 59 194 1.0 6.0 0.00 0.00 0.00 38 1016.3
20260903100903 59 194 2.0 6.0 0.00 0.00 0.00 36 1016.3
20260903100003 59 194 1.0 5.0 0.00 0.00 0.00 41 1016.3
20260903095403 59 194 2.0 6.0 0.00 0.00 0.00 42 1016.2
20260903094503 59 191 4.0 7.0 0.00 0.00 0.00 41 1016.2
20260903093603 59 192 3.0 7.0 0.00 0.00 0.00 45 1016.2
20260903092703 60 137 3.0 7.0 0.00 0.00 0.00 44 1016.1
20260903091802 61 52 3.0 6.0 0.00 0.00 0.00 41 1016.1
20260903090903 62 83 2.0 6.0 0.00 0.00 0.00 39 1016.1
20260903090003 63 103 1.0 5.0 0.00 0.00 0.00 40 1016.1
20260903085424 64 102 2.0 6.0 0.00 0.00 0.00 39 1016.0
20260903084503 64 103 3.0 7.0 0.00 0.00 0.00 36 1016.0
20260903083603 65 99 3.0 6.0 0.00 0.00 0.00 40 1016.0
20260903082703 66 92 3.0 6.0 0.00 0.00 0.00 42 1016.0
20260903081824 66 104 4.0 6.0 0.00 0.00 0.00 41 1016.1
20260903080903 67 115 4.0 10.0 0.00 0.00 0.00 40 1016.0
20260903080003 68 100 5.0 10.0 0.00 0.00 0.00 38 1016.0
20260903075403 69 97 4.0 10.0 0.00 0.00 0.00 37 1015.9
20260903074524 69 106 3.0 7.0 0.00 0.00 0.00 35 1015.9
20260903073624 70 97 6.0 11.0 0.00 0.00 0.00 34 1015.7
20260903072703 70 96 6.0 11.0 0.00 0.00 0.00 31 1015.7
20260903071824 70 102 5.0 9.0 0.00 0.00 0.00 32 1015.6
20260903070903 70 103 5.0 13.0 0.00 0.00 0.00 33 1015.5
20260903070003 69 92 7.0 13.0 0.00 0.00 0.00 33 1015.5
20260903065403 69 89 6.0 11.0 0.00 0.00 0.00 33 1015.5
20260903064524 69 76 4.0 7.0 0.00 0.00 0.00 34 1015.4
20260903063603 69 83 3.0 7.0 0.00 0.00 0.00 31 1015.3
20260903062703 69 119 1.0 4.0 0.00 0.00 0.00 30 1015.3
20260903061803 69 119 1.0 4.0 0.00 0.00 0.00 30 1015.1
20260903060924 70 119 1.0 4.0 0.00 0.00 0.00 31 1014.9
20260903060003 71 85 4.0 9.0 0.00 0.00 0.00 31 1014.8
20260903055403 72 75 6.0 9.0 0.00 0.00 0.00 29 1014.8
20260903054503 72 64 6.0 8.0 0.00 0.00 0.00 28 1014.9
20260903053603 72 42 3.0 7.0 0.00 0.00 0.00 28 1014.8
20260903052703 72 233 4.0 9.0 0.00 0.00 0.00 29 1014.9
20260903051803 73 54 5.0 11.0 0.00 0.00 0.00 30 1014.8
20260903050924 73 58 7.0 11.0 0.00 0.00 0.00 29 1014.7
20260903050003 73 78 4.0 9.0 0.00 0.00 0.00 29 1015.0
20260903045403 73 118 4.0 9.0 0.00 0.00 0.00 28 1014.9
20260903044503 75 100 4.0 9.0 0.00 0.00 0.00 27 1014.8
20260903043603 77 105 5.0 14.0 0.00 0.00 0.00 26 1014.7
20260903042703 78 120 6.0 14.0 0.00 0.00 0.00 15 1014.7
20260903041803 78 118 7.0 12.0 0.00 0.00 0.00 15 1014.5
20260903040903 77 119 6.0 12.0 0.00 0.00 0.00 15 1014.5
20260903040003 78 108 6.0 13.0 0.00 0.00 0.00 20 1014.4
20260903035403 78 121 7.0 13.0 0.00 0.00 0.00 15 1014.4
20260903034524 79 124 9.0 16.0 0.00 0.00 0.00 15 1014.3
20260903033603 78 122 8.0 13.0 0.00 0.00 0.00 15 1014.3
20260903032703 79 121 8.0 18.0 0.00 0.00 0.00 15 1014.3
20260903031803 79 122 10.0 21.0 0.00 0.00 0.00 15 1014.2
20260903030903 79 124 10.0 16.0 0.00 0.00 0.00 15 1014.1
20260903030003 78 123 8.0 16.0 0.00 0.00 0.00 16 1014.1
20260903025403 78 122 7.0 15.0 0.00 0.00 0.00 17 1014.0
20260903024503 78 122 8.0 18.0 0.00 0.00 0.00 18 1013.9
20260903023603 79 123 9.0 15.0 0.00 0.00 0.00 18 1013.8
20260903022703 79 117 6.0 12.0 0.00 0.00 0.00 18 1013.7
20260903021803 79 110 6.0 11.0 0.00 0.00 0.00 18 1013.6
20260903020903 80 117 7.0 14.0 0.00 0.00 0.00 16 1013.6
20260903020003 80 116 8.0 14.0 0.00 0.00 0.00 16 1013.7
20260903015403 80 115 7.0 13.0 0.00 0.00 0.00 18 1013.8
20260903014503 80 119 7.0 13.0 0.00 0.00 0.00 17 1013.8
20260903013624 80 124 7.0 15.0 0.00 0.00 0.00 17 1013.9
20260903012703 80 132 6.0 10.0 0.00 0.00 0.00 17 1013.9
20260903011803 80 127 7.0 12.0 0.00 0.00 0.00 17 1014.0
20260903010903 81 134 8.0 13.0 0.00 0.00 0.00 17 1014.1
20260903010003 81 125 9.0 15.0 0.00 0.00 0.00 17 1014.2
20260903005403 81 123 7.0 15.0 0.00 0.00 0.00 18 1014.3
20260903004503 82 140 7.0 13.0 0.00 0.00 0.00 18 1014.3
20260903003603 82 142 7.0 12.0 0.00 0.00 0.00 18 1014.3
20260903002724 82 137 7.0 14.0 0.00 0.00 0.00 19 1014.3
20260903001803 83 147 10.0 19.0 0.00 0.00 0.00 18 1014.3
20260903000924 83 145 8.0 19.0 0.00 0.00 0.00 18 1014.3
20260903000003 82 139 6.0 19.0 0.00 0.00 0.00 18 1014.4
20260902235403 83 139 10.0 19.0 0.00 0.00 0.00 19 1014.4
20260902234503 83 144 9.0 19.0 0.00 0.00 0.00 17 1014.3
20260902233603 84 141 9.0 19.0 0.00 0.00 0.00 19 1014.5
20260902232703 84 144 10.0 19.0 0.00 0.00 0.00 19 1014.5
20260902231803 84 140 9.0 15.0 0.00 0.00 0.00 19 1014.7
20260902230903 84 138 9.0 15.0 0.00 0.00 0.00 20 1014.7
20260902230003 83 141 12.0 22.0 0.00 0.00 0.00 19 1014.7
20260902225403 83 132 14.0 24.0 0.00 0.00 0.00 18 1014.8
20260902224503 84 142 10.0 24.0 0.00 0.00 0.00 20 1014.8
20260902223603 84 133 10.0 24.0 0.00 0.00 0.00 20 1014.8
20260902222724 84 133 11.0 25.0 0.00 0.00 0.00 19 1014.7
20260902221803 85 129 13.0 25.0 0.00 0.00 0.00 19 1014.9
20260902220903 84 136 10.0 18.0 0.00 0.00 0.00 20 1014.8
20260902220003 83 132 9.0 23.0 0.00 0.00 0.00 21 1015.0
20260902215424 84 127 11.0 23.0 0.00 0.00 0.00 20 1015.1
20260902214524 84 132 10.0 23.0 0.00 0.00 0.00 23 1015.2
20260902213603 83 125 12.0 22.0 0.00 0.00 0.00 23 1015.2
20260902212703 83 138 13.0 22.0 0.00 0.00 0.00 21 1015.4
20260902211824 84 135 12.0 24.0 0.00 0.00 0.00 23 1015.3
20260902210903 84 128 15.0 24.0 0.00 0.00 0.00 21 1015.4
20260902210003 85 129 12.0 23.0 0.00 0.00 0.00 22 1015.4
20260902205403 84 125 12.0 23.0 0.00 0.00 0.00 22 1015.4
20260902204503 84 138 11.0 22.0 0.00 0.00 0.00 23 1015.5
20260902203603 84 138 13.0 29.0 0.00 0.00 0.00 23 1015.7
20260902202724 84 143 12.0 25.0 0.00 0.00 0.00 24 1015.6
20260902201803 83 135 12.0 23.0 0.00 0.00 0.00 25 1015.7
20260902200903 83 132 12.0 26.0 0.00 0.00 0.00 25 1015.9
20260902200003 83 139 13.0 26.0 0.00 0.00 0.00 26 1016.0
20260902195403 82 127 16.0 28.0 0.00 0.00 0.00 25 1016.1
20260902194503 83 138 14.0 29.0 0.00 0.00 0.00 24 1016.1
20260902193603 82 131 16.0 29.0 0.00 0.00 0.00 23 1016.3
20260902192703 82 140 16.0 27.0 0.00 0.00 0.00 23 1016.4
20260902191824 82 132 15.0 28.0 0.00 0.00 0.00 24 1016.6
20260902190903 81 120 16.0 28.0 0.00 0.00 0.00 25 1016.6
20260902190003 81 123 18.0 31.0 0.00 0.00 0.00 26 1016.8
20260902185403 80 124 18.0 31.0 0.00 0.00 0.00 25 1016.9
20260902184503 80 126 16.0 29.0 0.00 0.00 0.00 29 1016.8
20260902183603 80 136 15.0 29.0 0.00 0.00 0.00 31 1016.9
20260902182724 80 127 15.0 31.0 0.00 0.00 0.00 30 1017.2
20260902181803 80 134 16.0 30.0 0.00 0.00 0.00 33 1017.2
20260902180924 79 138 17.0 33.0 0.00 0.00 0.00 33 1017.3